DLH493 CYVR-EDDF

Flight info

Callsign DLH493
Flight time N/A
Altitude 35000
Route DOLLR DCT GARRE DCT SEATN DCT 5230N12000W 58N110W 6230N10000W/N0498F370 65N090W 6630N08000W 6730N07000W/M085F370 DCT CANEL DCT 68N060W 68N050W 6730N04000W/M085F390 66N030W 64N020W DCT RATSU/N0494F390 DCT DEVBI DCT LONAM DCT SOGPO DCT DIXAT DIXAT1B
Aircraft A359/H-SDE2E3GHIJ3J4J5LM1ORWXY/LB1D1

Departure

Time 2026-05-06 05:47
Airport Vancouver International Airport (CYVR)

Arrival

Time N/A
Airport Frankfurt Main Airport (EDDF)
Time Latitude Longitude Altitude Speed Heading
2026-05-06 05:21 49.19949 -123.18147 20 ft 0 kts 189°
2026-05-06 05:35 49.19965 -123.18142 28 ft 3 kts 198°
2026-05-06 05:35 49.19984 -123.18129 26 ft 3 kts 221°
2026-05-06 05:35 49.19997 -123.18104 26 ft 3 kts 252°
2026-05-06 05:36 49.20000 -123.18073 26 ft 3 kts 279°
2026-05-06 05:36 49.19999 -123.18062 26 ft 0 kts 280°
2026-05-06 05:40 49.19999 -123.18063 26 ft 1 kts 279°
2026-05-06 05:40 49.20004 -123.18108 29 ft 7 kts 278°
2026-05-06 05:40 49.20012 -123.18183 27 ft 8 kts 279°
2026-05-06 05:40 49.20022 -123.18278 28 ft 12 kts 279°
2026-05-06 05:41 49.20039 -123.18424 29 ft 15 kts 279°
2026-05-06 05:41 49.20011 -123.18555 29 ft 11 kts 255°
2026-05-06 05:41 49.20015 -123.18680 29 ft 12 kts 279°
2026-05-06 05:41 49.20029 -123.18813 29 ft 13 kts 278°
2026-05-06 05:42 49.20045 -123.18956 29 ft 14 kts 279°
2026-05-06 05:42 49.20005 -123.19061 29 ft 12 kts 191°
2026-05-06 05:42 49.19919 -123.19085 29 ft 13 kts 190°
2026-05-06 05:42 49.19829 -123.19109 29 ft 13 kts 189°
2026-05-06 05:43 49.19703 -123.19139 29 ft 22 kts 189°
2026-05-06 05:43 49.19554 -123.19175 29 ft 22 kts 190°
2026-05-06 05:43 49.19406 -123.19218 29 ft 22 kts 193°
2026-05-06 05:43 49.19317 -123.19365 27 ft 21 kts 257°
2026-05-06 05:44 49.19289 -123.19575 29 ft 20 kts 258°
2026-05-06 05:44 49.19261 -123.19786 29 ft 20 kts 259°
2026-05-06 05:44 49.19235 -123.19998 29 ft 21 kts 259°
2026-05-06 05:44 49.19207 -123.20215 29 ft 21 kts 259°
2026-05-06 05:45 49.19184 -123.20436 29 ft 21 kts 262°
2026-05-06 05:45 49.19193 -123.20648 29 ft 15 kts 280°
2026-05-06 05:45 49.19187 -123.20788 29 ft 11 kts 243°
2026-05-06 05:45 49.19125 -123.20834 29 ft 10 kts 192°
2026-05-06 05:46 49.19054 -123.20845 29 ft 11 kts 171°
2026-05-06 05:46 49.19008 -123.20773 30 ft 9 kts 103°
2026-05-06 05:46 49.18997 -123.20683 31 ft 8 kts 99°
2026-05-06 05:46 49.18983 -123.20557 31 ft 26 kts 99°
2026-05-06 05:47 49.18912 -123.19939 29 ft 92 kts 101°
2026-05-06 05:47 49.18770 -123.18695 27 ft 148 kts 100°
2026-05-06 05:47 49.18573 -123.16943 313 ft 171 kts 101°
2026-05-06 05:47 49.18375 -123.15190 1080 ft 169 kts 99°
2026-05-06 05:48 49.18310 -123.13356 1668 ft 178 kts 81°
2026-05-06 05:48 49.18702 -123.11502 2049 ft 193 kts 65°
2026-05-06 05:48 49.19557 -123.09811 2225 ft 210 kts 46°
2026-05-06 05:48 49.20736 -123.08348 2444 ft 226 kts 36°
2026-05-06 05:49 49.22136 -123.07035 2656 ft 245 kts 30°
2026-05-06 05:49 49.23691 -123.05765 2928 ft 259 kts 27°
2026-05-06 05:49 49.25317 -123.04487 3394 ft 265 kts 27°
2026-05-06 05:49 49.26963 -123.03172 3905 ft 268 kts 27°
2026-05-06 05:50 49.28590 -123.01830 4432 ft 270 kts 27°
2026-05-06 05:50 49.30241 -123.00427 4969 ft 272 kts 27°
2026-05-06 05:50 49.31897 -122.98989 5479 ft 275 kts 27°
2026-05-06 05:50 49.33561 -122.97526 5997 ft 276 kts 27°
2026-05-06 05:51 49.35233 -122.96048 6486 ft 278 kts 28°
2026-05-06 05:51 49.36928 -122.94546 6930 ft 282 kts 28°
2026-05-06 05:51 49.38627 -122.93039 7406 ft 283 kts 28°
2026-05-06 05:51 49.40337 -122.91525 7876 ft 285 kts 28°
2026-05-06 05:52 49.42067 -122.89996 8349 ft 287 kts 28°
2026-05-06 05:52 49.43781 -122.88482 8831 ft 288 kts 28°
2026-05-06 05:52 49.45521 -122.86943 9363 ft 289 kts 28°
2026-05-06 05:52 49.47277 -122.85389 9850 ft 292 kts 28°
2026-05-06 05:53 49.49054 -122.83813 10200 ft 299 kts 28°
2026-05-06 05:53 49.50896 -122.82183 10359 ft 311 kts 28°
2026-05-06 05:53 49.52810 -122.80490 10556 ft 323 kts 28°
2026-05-06 05:53 49.54793 -122.78732 10752 ft 335 kts 28°
2026-05-06 05:54 49.56848 -122.76912 10920 ft 346 kts 28°
2026-05-06 05:54 49.58960 -122.75035 11115 ft 356 kts 28°
2026-05-06 05:54 49.61139 -122.73092 11300 ft 366 kts 28°
2026-05-06 05:54 49.63373 -122.71095 11448 ft 376 kts 28°
2026-05-06 05:55 49.65666 -122.69045 11600 ft 385 kts 28°
2026-05-06 05:55 49.67971 -122.66979 11881 ft 390 kts 28°
2026-05-06 05:55 49.70331 -122.64858 12260 ft 392 kts 28°
2026-05-06 05:55 49.72697 -122.62730 12657 ft 395 kts 28°
2026-05-06 05:56 49.75080 -122.60586 13038 ft 397 kts 28°
2026-05-06 05:56 49.77478 -122.58431 13383 ft 399 kts 27°
2026-05-06 05:56 49.79893 -122.56263 13679 ft 402 kts 28°
2026-05-06 05:56 49.82313 -122.54090 14011 ft 403 kts 27°
2026-05-06 05:57 49.84741 -122.51908 14308 ft 405 kts 27°
2026-05-06 05:57 49.87182 -122.49708 14647 ft 406 kts 27°
2026-05-06 05:57 49.89725 -122.47799 14925 ft 405 kts 18°
2026-05-06 05:57 49.92398 -122.46678 15290 ft 402 kts
2026-05-06 05:58 49.95165 -122.46009 15617 ft 402 kts
2026-05-06 05:58 49.97957 -122.45553 15923 ft 403 kts
2026-05-06 05:58 50.00754 -122.45213 16257 ft 405 kts
2026-05-06 05:58 50.03572 -122.44913 16586 ft 407 kts
2026-05-06 05:59 50.06396 -122.44616 16991 ft 407 kts
2026-05-06 05:59 50.09242 -122.44306 17203 ft 412 kts
2026-05-06 05:59 50.12124 -122.43980 17449 ft 416 kts
2026-05-06 05:59 50.15007 -122.43641 17760 ft 416 kts
2026-05-06 06:00 50.17897 -122.43293 18097 ft 416 kts
2026-05-06 06:00 50.20794 -122.42939 18380 ft 419 kts
2026-05-06 06:00 50.23702 -122.42578 18715 ft 419 kts
2026-05-06 06:00 50.26607 -122.42215 19054 ft 420 kts
2026-05-06 06:01 50.29491 -122.41857 19318 ft 422 kts
2026-05-06 06:01 50.32420 -122.41492 19652 ft 422 kts
2026-05-06 06:01 50.35362 -122.41130 19882 ft 426 kts
2026-05-06 06:01 50.38333 -122.40766 20081 ft 429 kts
2026-05-06 06:02 50.41316 -122.40400 20386 ft 430 kts
2026-05-06 06:02 50.44310 -122.40030 20664 ft 431 kts
2026-05-06 06:02 50.47309 -122.39658 20927 ft 433 kts
2026-05-06 06:02 50.50321 -122.39289 21165 ft 434 kts
2026-05-06 06:03 50.53342 -122.38915 21463 ft 436 kts
2026-05-06 06:03 50.56329 -122.38543 21710 ft 437 kts
2026-05-06 06:03 50.59369 -122.38165 21986 ft 439 kts
2026-05-06 06:03 50.62416 -122.37783 22336 ft 439 kts
2026-05-06 06:04 50.65470 -122.37270 22544 ft 444 kts
2026-05-06 06:04 50.68514 -122.36183 22781 ft 450 kts 13°
2026-05-06 06:04 50.71450 -122.34386 23037 ft 455 kts 22°
2026-05-06 06:04 50.74207 -122.31837 23273 ft 461 kts 31°
2026-05-06 06:05 50.76825 -122.28874 23514 ft 464 kts 33°
2026-05-06 06:05 50.79386 -122.25737 23707 ft 467 kts 35°
2026-05-06 06:05 50.81894 -122.22544 23864 ft 469 kts 35°
2026-05-06 06:05 50.84433 -122.19274 24059 ft 471 kts 36°
2026-05-06 06:06 50.86977 -122.15994 24302 ft 472 kts 35°
2026-05-06 06:06 50.89535 -122.12711 24576 ft 472 kts 35°
2026-05-06 06:06 50.92094 -122.09445 24784 ft 473 kts 35°
2026-05-06 06:06 50.94670 -122.06167 25006 ft 475 kts 35°
2026-05-06 06:07 50.97225 -122.02925 25225 ft 476 kts 35°
2026-05-06 06:07 50.99817 -121.99636 25435 ft 477 kts 35°
2026-05-06 06:07 51.02414 -121.96336 25633 ft 479 kts 35°
2026-05-06 06:07 51.05031 -121.93008 25772 ft 482 kts 35°
2026-05-06 06:08 51.07650 -121.89667 25999 ft 483 kts 35°
2026-05-06 06:08 51.10275 -121.86311 26288 ft 483 kts 35°
2026-05-06 06:08 51.12889 -121.82963 26558 ft 483 kts 35°
2026-05-06 06:08 51.15524 -121.79583 26765 ft 485 kts 35°
2026-05-06 06:09 51.18158 -121.76204 26936 ft 487 kts 35°
2026-05-06 06:09 51.20769 -121.72852 27142 ft 488 kts 35°
2026-05-06 06:09 51.23412 -121.69449 27355 ft 489 kts 35°
2026-05-06 06:09 51.26065 -121.66028 27555 ft 491 kts 35°
2026-05-06 06:10 51.28725 -121.62591 27757 ft 492 kts 35°
2026-05-06 06:10 51.31392 -121.59138 27997 ft 493 kts 35°
2026-05-06 06:10 51.34056 -121.55685 28246 ft 493 kts 35°
2026-05-06 06:10 51.36725 -121.52220 28418 ft 495 kts 35°
2026-05-06 06:11 51.39404 -121.48739 28591 ft 496 kts 35°
2026-05-06 06:11 51.42063 -121.45278 28762 ft 497 kts 35°
2026-05-06 06:11 51.44750 -121.41775 28916 ft 499 kts 35°
2026-05-06 06:11 51.47457 -121.38240 29047 ft 501 kts 35°
2026-05-06 06:12 51.50173 -121.34690 29151 ft 504 kts 35°
2026-05-06 06:12 51.52889 -121.31131 29411 ft 503 kts 35°
2026-05-06 06:12 51.55592 -121.27582 29780 ft 500 kts 35°
2026-05-06 06:12 51.58282 -121.24043 30066 ft 499 kts 35°
2026-05-06 06:13 51.60976 -121.20497 30284 ft 499 kts 35°
2026-05-06 06:13 51.62756 -121.18151 30411 ft 499 kts 35°
2026-05-06 06:13 51.65449 -121.14599 30649 ft 499 kts 35°
2026-05-06 06:13 51.69003 -121.09901 30959 ft 498 kts 35°
2026-05-06 06:14 51.71681 -121.06353 31204 ft 498 kts 35°
2026-05-06 06:14 51.73457 -121.03998 31351 ft 497 kts 35°
2026-05-06 06:14 51.76134 -121.00442 31655 ft 495 kts 35°
2026-05-06 06:14 51.78788 -120.96910 31959 ft 493 kts 34°
2026-05-06 06:15 51.81439 -120.93378 32163 ft 493 kts 34°
2026-05-06 06:15 51.84083 -120.89848 32369 ft 493 kts 34°
2026-05-06 06:15 51.86721 -120.86324 32570 ft 492 kts 34°
2026-05-06 06:15 51.89364 -120.82787 32813 ft 492 kts 34°
2026-05-06 06:16 51.91996 -120.79259 33009 ft 491 kts 34°
2026-05-06 06:16 51.94634 -120.75719 33198 ft 491 kts 34°
2026-05-06 06:16 51.97263 -120.72184 33431 ft 490 kts 34°
2026-05-06 06:16 51.99878 -120.68660 33743 ft 488 kts 34°
2026-05-06 06:17 52.02485 -120.65140 33955 ft 487 kts 34°
2026-05-06 06:17 52.05060 -120.61662 34102 ft 487 kts 34°
2026-05-06 06:17 52.07663 -120.58141 34250 ft 486 kts 34°
2026-05-06 06:17 52.10264 -120.54619 34418 ft 486 kts 34°
2026-05-06 06:18 52.12858 -120.51097 34586 ft 486 kts 34°
2026-05-06 06:18 52.15450 -120.47571 34742 ft 485 kts 34°
2026-05-06 06:18 52.18043 -120.44038 34894 ft 485 kts 34°
2026-05-06 06:18 52.20643 -120.40490 34962 ft 488 kts 34°
2026-05-06 06:19 52.25855 -120.33373 34972 ft 492 kts 34°
2026-05-06 06:19 52.31094 -120.26182 34970 ft 491 kts 34°
2026-05-06 06:20 52.36330 -120.18975 34977 ft 492 kts 34°
2026-05-06 06:20 52.41596 -120.11710 34990 ft 495 kts 34°
2026-05-06 06:21 52.46816 -120.04477 34986 ft 493 kts 34°
2026-05-06 06:21 52.52048 -119.97176 34982 ft 493 kts 36°
2026-05-06 06:22 52.57159 -119.89616 34990 ft 495 kts 37°
2026-05-06 06:22 52.62240 -119.81943 35015 ft 495 kts 37°
2026-05-06 06:23 52.67307 -119.74321 34983 ft 492 kts 37°
2026-05-06 06:23 52.72344 -119.66771 34986 ft 491 kts 36°
2026-05-06 06:24 52.77402 -119.59180 34983 ft 491 kts 36°
2026-05-06 06:24 52.82463 -119.51558 34993 ft 491 kts 37°
2026-05-06 06:25 52.87511 -119.43927 34995 ft 491 kts 36°
2026-05-06 06:26 52.95059 -119.32460 34995 ft 491 kts 37°
2026-05-06 06:26 53.00050 -119.24844 34996 ft 491 kts 37°
2026-05-06 06:27 53.05078 -119.17152 35018 ft 491 kts 37°
2026-05-06 06:27 53.10089 -119.09458 35001 ft 488 kts 37°
2026-05-06 06:28 53.15062 -119.01798 35001 ft 487 kts 37°
2026-05-06 06:28 53.20037 -118.94117 34999 ft 487 kts 37°
2026-05-06 06:29 53.25002 -118.86421 34999 ft 487 kts 37°
2026-05-06 06:29 53.29965 -118.78704 34989 ft 485 kts 37°
2026-05-06 06:30 53.34888 -118.71029 34997 ft 487 kts 37°
2026-05-06 06:30 53.39856 -118.63249 34995 ft 489 kts 37°
2026-05-06 06:31 53.44798 -118.55478 35005 ft 489 kts 37°
2026-05-06 06:31 53.49760 -118.47653 35012 ft 489 kts 37°
2026-05-06 06:32 53.54695 -118.39839 35021 ft 486 kts 37°
2026-05-06 06:32 53.59614 -118.32032 35024 ft 485 kts 37°
2026-05-06 06:33 53.64499 -118.24263 35033 ft 485 kts 37°
2026-05-06 06:33 53.69414 -118.16413 35039 ft 486 kts 37°
2026-05-06 06:34 53.74306 -118.08567 35046 ft 484 kts 37°
2026-05-06 06:34 53.79183 -118.00723 35055 ft 484 kts 37°
2026-05-06 06:35 53.84040 -117.92891 35056 ft 486 kts 37°
2026-05-06 06:35 53.88940 -117.84954 35051 ft 486 kts 37°
2026-05-06 06:36 53.93835 -117.76997 35052 ft 486 kts 37°
2026-05-06 06:36 53.98706 -117.69050 35052 ft 484 kts 37°
2026-05-06 06:37 54.03537 -117.61146 35053 ft 484 kts 37°
2026-05-06 06:37 54.08393 -117.53178 35035 ft 484 kts 37°
2026-05-06 06:38 54.13250 -117.45177 35049 ft 484 kts 37°
2026-05-06 06:38 54.18055 -117.37234 35035 ft 483 kts 37°
2026-05-06 06:39 54.22880 -117.29230 35033 ft 482 kts 37°
2026-05-06 06:39 54.27700 -117.21211 35024 ft 484 kts 38°
2026-05-06 06:40 54.32500 -117.13198 35025 ft 485 kts 38°
2026-05-06 06:40 54.37338 -117.05089 35028 ft 485 kts 38°
2026-05-06 06:41 54.42170 -116.96964 35035 ft 485 kts 38°
2026-05-06 06:41 54.46955 -116.88886 35024 ft 485 kts 38°
2026-05-06 06:42 54.51767 -116.80736 35026 ft 486 kts 38°
2026-05-06 06:42 54.56581 -116.72556 35034 ft 486 kts 38°
2026-05-06 06:43 54.61384 -116.64361 35031 ft 483 kts 38°
2026-05-06 06:43 54.66159 -116.56188 35030 ft 483 kts 38°
2026-05-06 06:44 54.70920 -116.48014 35031 ft 483 kts 38°
2026-05-06 06:44 54.75690 -116.39798 35038 ft 485 kts 38°
2026-05-06 06:45 54.80448 -116.31571 35030 ft 485 kts 38°
2026-05-06 06:45 54.85213 -116.23297 35036 ft 483 kts 38°
2026-05-06 06:46 54.89956 -116.15035 35032 ft 483 kts 38°
2026-05-06 06:46 54.94701 -116.06741 35042 ft 483 kts 38°
2026-05-06 06:47 54.99413 -115.98476 35043 ft 483 kts 38°
2026-05-06 06:47 55.04137 -115.90157 35049 ft 480 kts 38°
2026-05-06 06:48 55.08807 -115.81903 35049 ft 479 kts 38°
2026-05-06 06:48 55.13494 -115.73597 35051 ft 479 kts 38°
2026-05-06 06:49 55.18167 -115.65286 35056 ft 479 kts 38°
2026-05-06 06:49 55.22809 -115.57001 35069 ft 480 kts 38°
2026-05-06 06:50 55.27488 -115.48618 35058 ft 480 kts 38°
2026-05-06 06:50 55.32130 -115.40267 35061 ft 480 kts 38°
2026-05-06 06:51 55.36786 -115.31863 35068 ft 480 kts 38°
2026-05-06 06:51 55.41440 -115.23435 35054 ft 480 kts 39°
2026-05-06 06:52 55.46086 -115.14989 35060 ft 478 kts 38°
2026-05-06 06:52 55.50675 -115.06612 35060 ft 477 kts 38°
2026-05-06 06:53 55.55285 -114.98173 35085 ft 476 kts 38°
2026-05-06 06:53 55.59887 -114.89721 35082 ft 477 kts 38°
2026-05-06 06:54 55.64477 -114.81258 35091 ft 477 kts 38°
2026-05-06 06:54 55.69056 -114.72781 35097 ft 474 kts 38°
2026-05-06 06:55 55.73588 -114.64361 35098 ft 476 kts 38°
2026-05-06 06:55 55.78159 -114.55845 35100 ft 476 kts 38°
2026-05-06 06:56 55.82720 -114.47311 35104 ft 476 kts 38°
2026-05-06 06:56 55.87280 -114.38747 35133 ft 476 kts 38°
2026-05-06 06:57 55.91813 -114.30196 35110 ft 472 kts 38°
2026-05-06 06:57 55.96286 -114.21732 35119 ft 471 kts 38°
2026-05-06 06:58 56.00783 -114.13200 35113 ft 471 kts 39°
2026-05-06 06:58 56.05273 -114.04649 35122 ft 471 kts 39°
2026-05-06 06:59 56.09757 -113.96076 35139 ft 471 kts 39°
2026-05-06 06:59 56.14167 -113.87602 35126 ft 466 kts 39°
2026-05-06 07:00 56.18595 -113.79073 35126 ft 467 kts 39°
2026-05-06 07:00 56.23040 -113.70492 35130 ft 468 kts 39°
2026-05-06 07:01 56.27472 -113.61894 35128 ft 469 kts 39°
2026-05-06 07:01 56.31875 -113.53316 35143 ft 468 kts 39°
2026-05-06 07:02 56.36267 -113.44719 35123 ft 463 kts 39°
2026-05-06 07:02 56.39901 -113.37592 35128 ft 463 kts 39°
2026-05-06 07:03 56.44264 -113.29014 35124 ft 463 kts 39°
2026-05-06 07:03 56.48620 -113.20417 35126 ft 463 kts 39°
2026-05-06 07:04 56.52944 -113.11848 35131 ft 463 kts 39°
2026-05-06 07:04 56.57299 -113.03183 35136 ft 463 kts 39°
2026-05-06 07:05 56.61639 -112.94517 35134 ft 463 kts 39°
2026-05-06 07:05 56.65952 -112.85874 35136 ft 464 kts 39°
2026-05-06 07:06 56.70282 -112.77164 35132 ft 464 kts 39°
2026-05-06 07:06 56.74611 -112.68424 35163 ft 463 kts 39°
2026-05-06 07:07 56.78879 -112.59765 35138 ft 459 kts 39°
2026-05-06 07:07 56.83146 -112.51089 35143 ft 459 kts 39°
2026-05-06 07:08 56.87408 -112.42393 35143 ft 459 kts 39°
2026-05-06 07:08 56.91663 -112.33677 35143 ft 459 kts 39°
2026-05-06 07:09 56.95919 -112.24925 35156 ft 459 kts 39°
2026-05-06 07:09 57.00122 -112.16242 35143 ft 456 kts 39°
2026-05-06 07:10 57.04333 -112.07517 35144 ft 456 kts 39°
2026-05-06 07:10 57.08537 -111.98778 35151 ft 456 kts 39°
2026-05-06 07:11 57.12742 -111.90008 35146 ft 458 kts 40°
2026-05-06 07:11 57.16965 -111.81165 35183 ft 460 kts 40°
2026-05-06 07:12 57.21149 -111.72356 35161 ft 457 kts 40°
2026-05-06 07:12 57.25329 -111.63527 35165 ft 456 kts 40°
2026-05-06 07:13 57.29509 -111.54674 35155 ft 456 kts 40°
2026-05-06 07:13 57.33684 -111.45798 35158 ft 457 kts 40°
2026-05-06 07:14 57.37853 -111.36900 35214 ft 457 kts 40°
2026-05-06 07:14 57.41976 -111.28059 35163 ft 455 kts 40°
2026-05-06 07:15 57.46109 -111.19165 35159 ft 454 kts 40°
2026-05-06 07:15 57.50235 -111.10259 35158 ft 454 kts 40°
2026-05-06 07:16 57.54360 -111.01321 35165 ft 455 kts 40°
2026-05-06 07:16 57.58450 -110.92426 35164 ft 455 kts 40°
2026-05-06 07:17 57.62569 -110.83432 35163 ft 455 kts 40°
2026-05-06 07:17 57.66675 -110.74427 35165 ft 455 kts 40°
2026-05-06 07:18 57.70777 -110.65400 35165 ft 455 kts 40°
2026-05-06 07:18 57.74874 -110.56351 35165 ft 455 kts 40°
2026-05-06 07:19 57.78944 -110.47325 35173 ft 456 kts 40°
2026-05-06 07:19 57.83031 -110.38224 35174 ft 453 kts 40°
2026-05-06 07:20 57.87081 -110.29166 35176 ft 452 kts 40°
2026-05-06 07:20 57.91094 -110.20168 35176 ft 452 kts 40°
2026-05-06 07:21 57.95132 -110.11081 35186 ft 452 kts 40°
2026-05-06 07:21 57.99170 -110.02002 35184 ft 450 kts 39°
2026-05-06 07:22 58.03539 -109.93703 35192 ft 444 kts 35°
2026-05-06 07:22 58.07970 -109.85671 35191 ft 443 kts 35°
2026-05-06 07:23 58.12442 -109.77619 35206 ft 443 kts 35°
2026-05-06 07:23 58.16905 -109.69547 35208 ft 443 kts 35°
2026-05-06 07:24 58.21361 -109.61438 35204 ft 444 kts 35°
2026-05-06 07:24 58.25784 -109.53358 35214 ft 444 kts 35°
2026-05-06 07:25 58.30227 -109.45206 35213 ft 444 kts 36°
2026-05-06 07:25 58.34673 -109.37019 35226 ft 444 kts 36°
2026-05-06 07:26 58.39108 -109.28824 35229 ft 444 kts 36°
2026-05-06 07:26 58.43520 -109.20642 35233 ft 444 kts 36°
2026-05-06 07:27 58.47951 -109.12395 35233 ft 445 kts 36°
2026-05-06 07:27 58.52385 -109.04114 35291 ft 445 kts 36°
2026-05-06 07:28 58.56813 -108.95808 35244 ft 446 kts 36°
2026-05-06 07:28 58.63451 -108.83300 35243 ft 446 kts 36°
2026-05-06 07:29 58.67845 -108.74981 35239 ft 446 kts 36°
2026-05-06 07:29 58.72253 -108.66605 35246 ft 446 kts 37°
2026-05-06 07:30 58.76668 -108.58186 35251 ft 446 kts 37°
2026-05-06 07:30 58.81077 -108.49745 35245 ft 446 kts 37°
2026-05-06 07:31 58.85481 -108.41281 35250 ft 446 kts 37°
2026-05-06 07:31 58.89878 -108.32799 35251 ft 447 kts 37°
2026-05-06 07:32 58.94251 -108.24331 35259 ft 447 kts 37°
2026-05-06 07:32 58.98648 -108.15785 35257 ft 447 kts 37°
2026-05-06 07:33 59.03038 -108.07217 35268 ft 447 kts 37°
2026-05-06 07:33 59.07427 -107.98620 35260 ft 448 kts 37°
2026-05-06 07:34 59.11818 -107.89986 35262 ft 448 kts 37°
2026-05-06 07:34 59.16198 -107.81338 35266 ft 448 kts 37°
2026-05-06 07:35 59.20575 -107.72665 35259 ft 448 kts 37°
2026-05-06 07:35 59.24918 -107.64026 35262 ft 449 kts 38°
2026-05-06 07:36 59.29300 -107.55274 35260 ft 450 kts 38°
2026-05-06 07:36 59.33680 -107.46493 35257 ft 450 kts 38°
2026-05-06 07:37 59.38030 -107.37737 35254 ft 451 kts 38°
2026-05-06 07:37 59.42404 -107.28897 35252 ft 451 kts 38°
2026-05-06 07:38 59.46773 -107.20033 35251 ft 451 kts 38°
2026-05-06 07:38 59.51132 -107.11153 35314 ft 451 kts 39°
2026-05-06 07:39 59.55494 -107.02236 35251 ft 452 kts 39°
2026-05-06 07:39 59.59855 -106.93282 35251 ft 452 kts 39°
2026-05-06 07:40 59.64182 -106.84364 35252 ft 452 kts 39°
2026-05-06 07:40 59.68527 -106.75372 35246 ft 452 kts 39°
2026-05-06 07:41 59.72869 -106.66348 35254 ft 451 kts 39°
2026-05-06 07:41 59.77195 -106.57323 35264 ft 452 kts 40°
2026-05-06 07:42 59.81549 -106.48207 35250 ft 455 kts 40°
2026-05-06 07:42 59.85877 -106.39103 35254 ft 456 kts 40°
2026-05-06 07:43 59.90231 -106.29906 35253 ft 456 kts 40°
2026-05-06 07:43 59.94574 -106.20695 35249 ft 456 kts 40°
2026-05-06 07:44 59.98912 -106.11459 35249 ft 456 kts 41°
2026-05-06 07:44 60.03256 -106.02174 35261 ft 458 kts 41°
2026-05-06 07:45 60.07590 -105.92875 35250 ft 460 kts 41°
2026-05-06 07:45 60.11947 -105.83479 35260 ft 459 kts 42°
2026-05-06 07:46 60.16295 -105.74063 35256 ft 459 kts 42°
2026-05-06 07:46 60.20630 -105.64641 35266 ft 459 kts 42°
2026-05-06 07:47 60.24935 -105.55245 35308 ft 459 kts 42°
2026-05-06 07:47 60.29271 -105.45741 35265 ft 462 kts 43°
2026-05-06 07:48 60.33620 -105.36168 35270 ft 463 kts 43°
2026-05-06 07:48 60.37963 -105.26566 35269 ft 463 kts 43°
2026-05-06 07:49 60.41569 -105.18562 35274 ft 463 kts 43°
2026-05-06 07:49 60.45902 -105.08905 35272 ft 463 kts 43°
2026-05-06 07:50 60.50200 -104.99288 35294 ft 463 kts 44°
2026-05-06 07:50 60.54530 -104.89560 35279 ft 465 kts 44°
2026-05-06 07:51 60.58865 -104.79777 35279 ft 465 kts 44°
2026-05-06 07:51 60.63195 -104.69962 35279 ft 465 kts 44°
2026-05-06 07:52 60.67519 -104.60114 35282 ft 466 kts 44°
2026-05-06 07:52 60.71836 -104.50243 35284 ft 466 kts 44°
2026-05-06 07:53 60.76126 -104.40393 35281 ft 467 kts 45°
2026-05-06 07:53 60.80462 -104.30394 35279 ft 470 kts 45°
2026-05-06 07:54 60.84800 -104.20341 35282 ft 470 kts 45°
2026-05-06 07:54 60.89123 -104.10279 35279 ft 470 kts 45°
2026-05-06 07:55 60.93414 -104.00247 35282 ft 470 kts 45°
2026-05-06 07:55 60.97723 -103.90129 35287 ft 470 kts 45°
2026-05-06 07:56 61.02034 -103.79963 35277 ft 472 kts 46°
2026-05-06 07:56 61.06367 -103.69698 35276 ft 473 kts 46°
2026-05-06 07:57 61.10660 -103.59480 35277 ft 473 kts 46°
2026-05-06 07:57 61.14968 -103.49180 35276 ft 473 kts 46°
2026-05-06 07:58 61.19274 -103.38837 35273 ft 473 kts 46°
2026-05-06 07:58 61.23575 -103.28461 35274 ft 473 kts 46°
2026-05-06 07:59 61.27866 -103.18058 35274 ft 473 kts 46°
2026-05-06 07:59 61.32112 -103.07719 35273 ft 472 kts 46°
2026-05-06 08:00 61.36376 -102.97288 35279 ft 472 kts 46°
2026-05-06 08:00 61.40625 -102.86849 35279 ft 472 kts 46°
2026-05-06 08:01 61.44874 -102.76360 35276 ft 472 kts 46°
2026-05-06 08:01 61.49090 -102.65904 35280 ft 474 kts 47°
2026-05-06 08:02 61.53342 -102.55312 35281 ft 475 kts 47°
2026-05-06 08:02 61.57594 -102.44666 35281 ft 475 kts 47°
2026-05-06 08:03 61.61832 -102.34007 35280 ft 475 kts 47°
2026-05-06 08:03 61.66030 -102.23398 35280 ft 475 kts 47°
2026-05-06 08:04 61.70253 -102.12677 35292 ft 475 kts 48°
2026-05-06 08:04 61.74473 -102.01912 35281 ft 476 kts 48°
2026-05-06 08:05 61.78683 -101.91122 35283 ft 476 kts 48°
2026-05-06 08:05 61.82865 -101.80354 35285 ft 476 kts 48°
2026-05-06 08:06 61.87063 -101.69493 35285 ft 476 kts 48°
2026-05-06 08:06 61.91248 -101.58611 35269 ft 476 kts 49°
2026-05-06 08:07 61.95431 -101.47685 35285 ft 477 kts 49°
2026-05-06 08:07 61.99589 -101.36770 35285 ft 478 kts 49°
2026-05-06 08:08 62.03770 -101.25743 35281 ft 478 kts 49°
2026-05-06 08:08 62.07936 -101.14701 35266 ft 478 kts 49°
2026-05-06 08:09 62.12093 -101.03628 35276 ft 477 kts 49°
2026-05-06 08:09 62.16238 -100.92535 35275 ft 477 kts 49°
2026-05-06 08:10 62.20361 -100.81447 35279 ft 478 kts 50°
2026-05-06 08:10 62.24513 -100.70227 35279 ft 479 kts 50°
2026-05-06 08:11 62.28652 -100.58983 35282 ft 479 kts 50°
2026-05-06 08:11 62.32748 -100.47805 35279 ft 479 kts 50°
2026-05-06 08:12 62.36859 -100.36527 35276 ft 479 kts 50°
2026-05-06 08:12 62.40967 -100.25204 35280 ft 479 kts 50°
2026-05-06 08:13 62.45073 -100.13830 35274 ft 480 kts 51°
2026-05-06 08:13 62.49175 -100.02410 35270 ft 480 kts 51°
2026-05-06 08:14 62.53111 -99.90820 35274 ft 481 kts 54°
2026-05-06 08:14 62.56774 -99.78630 35274 ft 482 kts 56°
2026-05-06 08:15 62.60410 -99.66414 35265 ft 481 kts 55°
2026-05-06 08:15 62.64083 -99.54248 35266 ft 482 kts 55°
2026-05-06 08:16 62.67778 -99.42064 35254 ft 482 kts 55°
2026-05-06 08:16 62.71466 -99.29858 35254 ft 482 kts 55°
2026-05-06 08:17 62.75118 -99.17696 35249 ft 482 kts 56°
2026-05-06 08:17 62.78781 -99.05421 35249 ft 482 kts 56°
2026-05-06 08:18 62.82436 -98.93109 35247 ft 482 kts 56°
2026-05-06 08:18 62.86079 -98.80768 35237 ft 482 kts 56°
2026-05-06 08:19 62.89708 -98.68408 35233 ft 481 kts 56°
2026-05-06 08:19 62.93324 -98.56028 35233 ft 481 kts 56°
2026-05-06 08:20 62.96905 -98.43698 35232 ft 481 kts 57°
2026-05-06 08:20 63.00502 -98.31246 35224 ft 481 kts 57°
2026-05-06 08:21 63.04088 -98.18764 35227 ft 481 kts 57°
2026-05-06 08:21 63.07638 -98.06340 35216 ft 482 kts 57°
2026-05-06 08:22 63.11202 -97.93793 35214 ft 482 kts 57°
2026-05-06 08:22 63.14754 -97.81221 35205 ft 482 kts 57°
2026-05-06 08:23 63.18294 -97.68621 35205 ft 481 kts 58°
2026-05-06 08:23 63.21822 -97.55994 35201 ft 482 kts 58°
2026-05-06 08:24 63.25343 -97.43320 35191 ft 481 kts 58°
2026-05-06 08:24 63.28832 -97.30692 35195 ft 483 kts 58°
2026-05-06 08:25 63.32332 -97.17951 35199 ft 483 kts 58°
2026-05-06 08:25 63.35825 -97.05164 35197 ft 483 kts 58°
2026-05-06 08:26 63.39305 -96.92350 35189 ft 483 kts 59°
2026-05-06 08:26 63.42776 -96.79498 35189 ft 483 kts 59°
2026-05-06 08:27 63.46213 -96.66695 35175 ft 483 kts 59°
2026-05-06 08:27 63.49655 -96.53801 35181 ft 483 kts 59°
2026-05-06 08:28 63.53098 -96.40829 35170 ft 483 kts 59°
2026-05-06 08:28 63.56499 -96.27943 35170 ft 483 kts 59°
2026-05-06 08:29 63.59905 -96.14960 35163 ft 483 kts 59°
2026-05-06 08:29 63.63303 -96.01929 35163 ft 483 kts 60°
2026-05-06 08:30 63.66691 -95.88863 35164 ft 482 kts 60°
2026-05-06 08:30 63.70045 -95.75853 35153 ft 482 kts 60°
2026-05-06 08:31 63.73407 -95.62734 35151 ft 482 kts 60°
2026-05-06 08:31 63.76760 -95.49572 35147 ft 482 kts 60°
2026-05-06 08:32 63.80097 -95.36393 35145 ft 484 kts 61°
2026-05-06 08:32 63.83416 -95.23204 35135 ft 485 kts 61°
2026-05-06 08:33 63.86746 -95.09895 35137 ft 485 kts 61°
2026-05-06 08:33 63.90071 -94.96529 35127 ft 485 kts 61°
2026-05-06 08:34 63.95011 -94.76515 35132 ft 485 kts 62°
2026-05-06 08:35 63.98302 -94.63077 35115 ft 486 kts 62°
2026-05-06 08:35 64.01584 -94.49598 35122 ft 487 kts 62°
2026-05-06 08:36 64.04863 -94.36042 35118 ft 487 kts 62°
2026-05-06 08:36 64.08127 -94.22471 35118 ft 487 kts 62°
2026-05-06 08:37 64.11361 -94.08935 35108 ft 487 kts 63°
2026-05-06 08:37 64.14053 -93.97605 35108 ft 487 kts 63°
2026-05-06 08:38 64.17283 -93.83932 35110 ft 486 kts 63°
2026-05-06 08:38 64.20497 -93.70244 35104 ft 486 kts 63°
2026-05-06 08:39 64.23695 -93.56534 35109 ft 486 kts 64°
2026-05-06 08:39 64.26857 -93.42892 35094 ft 486 kts 64°
2026-05-06 08:40 64.30024 -93.29142 35096 ft 486 kts 64°
2026-05-06 08:40 64.33180 -93.15353 35087 ft 486 kts 64°
2026-05-06 08:41 64.36322 -93.01537 35093 ft 486 kts 65°
2026-05-06 08:41 64.39431 -92.87780 35089 ft 486 kts 65°
2026-05-06 08:42 64.42544 -92.73915 35087 ft 486 kts 65°
2026-05-06 08:42 64.45643 -92.60021 35086 ft 485 kts 65°
2026-05-06 08:43 64.48730 -92.46092 35086 ft 485 kts 65°
2026-05-06 08:43 64.51801 -92.32143 35076 ft 484 kts 65°
2026-05-06 08:44 64.54855 -92.18180 35075 ft 484 kts 65°
2026-05-06 08:44 64.57872 -92.04298 35076 ft 483 kts 66°
2026-05-06 08:45 64.60891 -91.90310 35071 ft 483 kts 66°
2026-05-06 08:45 64.63901 -91.76274 35073 ft 483 kts 66°
2026-05-06 08:46 64.66894 -91.62223 35073 ft 483 kts 66°
2026-05-06 08:46 64.69849 -91.48262 35061 ft 480 kts 66°
2026-05-06 08:47 64.72795 -91.34252 35066 ft 479 kts 66°
2026-05-06 08:47 64.75724 -91.20222 35056 ft 479 kts 66°
2026-05-06 08:48 64.78639 -91.06169 35060 ft 479 kts 66°
2026-05-06 08:48 64.81538 -90.92094 35048 ft 479 kts 67°
2026-05-06 08:49 64.84406 -90.78080 35039 ft 478 kts 67°
2026-05-06 08:49 64.87274 -90.63974 35035 ft 477 kts 67°
2026-05-06 08:50 64.90128 -90.49839 35032 ft 477 kts 67°
2026-05-06 08:50 64.92945 -90.35784 35034 ft 477 kts 68°
2026-05-06 08:51 64.95768 -90.21613 35025 ft 477 kts 68°
2026-05-06 08:51 64.98579 -90.07399 35023 ft 477 kts 68°
2026-05-06 08:52 65.01374 -89.93154 35021 ft 478 kts 69°
2026-05-06 08:52 65.04111 -89.78888 35022 ft 475 kts 69°
2026-05-06 08:53 65.06823 -89.64602 35022 ft 475 kts 69°
2026-05-06 08:53 65.09506 -89.50402 35023 ft 474 kts 69°
2026-05-06 08:54 65.12199 -89.36067 35028 ft 474 kts 70°
2026-05-06 08:54 65.14877 -89.21719 35020 ft 474 kts 70°
2026-05-06 08:55 65.17539 -89.07350 35019 ft 474 kts 70°
2026-05-06 08:55 65.20170 -88.93046 35023 ft 474 kts 70°
2026-05-06 08:56 65.22806 -88.78646 35086 ft 472 kts 70°
2026-05-06 08:56 65.25448 -88.64302 35126 ft 472 kts 70°
2026-05-06 08:57 65.28125 -88.49966 35059 ft 473 kts 69°
2026-05-06 08:57 65.30869 -88.35604 34986 ft 475 kts 69°
2026-05-06 08:58 65.33691 -88.21254 34919 ft 477 kts 69°
2026-05-06 08:58 65.36575 -88.07027 34904 ft 478 kts 68°
2026-05-06 08:59 65.39563 -87.92777 34914 ft 477 kts 67°
2026-05-06 08:59 65.42647 -87.78652 34947 ft 477 kts 66°
2026-05-06 09:00 65.45832 -87.64614 34920 ft 478 kts 65°
2026-05-06 09:00 65.49090 -87.50736 34909 ft 479 kts 64°
2026-05-06 09:01 65.52473 -87.36876 34952 ft 477 kts 64°
2026-05-06 09:01 65.55921 -87.23241 35112 ft 473 kts 63°
2026-05-06 09:02 65.59448 -87.09840 35175 ft 472 kts 62°
2026-05-06 09:02 65.61248 -87.03234 35041 ft 476 kts 62°
2026-05-06 09:02 65.63112 -86.96543 34839 ft 482 kts 61°
2026-05-06 09:02 65.65026 -86.89825 34661 ft 486 kts 60°
2026-05-06 09:03 65.66982 -86.83095 34554 ft 488 kts 60°
2026-05-06 09:03 65.70982 -86.69740 34577 ft 487 kts 59°
2026-05-06 09:03 65.72984 -86.63226 34680 ft 485 kts 59°
2026-05-06 09:04 65.75016 -86.56714 34799 ft 482 kts 58°
2026-05-06 09:04 65.77060 -86.50262 34963 ft 478 kts 58°
2026-05-06 09:04 65.79110 -86.43902 35123 ft 475 kts 57°
2026-05-06 09:05 65.83272 -86.31370 35096 ft 478 kts 56°
2026-05-06 09:05 65.85416 -86.25131 34948 ft 482 kts 55°
2026-05-06 09:05 65.87614 -86.18888 34795 ft 486 kts 55°
2026-05-06 09:05 65.89861 -86.12666 34675 ft 489 kts 54°
2026-05-06 09:06 65.92147 -86.06484 34640 ft 490 kts 54°
2026-05-06 09:06 65.96822 -85.94270 34686 ft 490 kts 52°
2026-05-06 09:07 66.01566 -85.82434 34865 ft 487 kts 51°
2026-05-06 09:07 66.06441 -85.70853 34979 ft 487 kts 49°
2026-05-06 09:08 66.11467 -85.59549 34915 ft 490 kts 48°
2026-05-06 09:08 66.16645 -85.48549 34937 ft 491 kts 46°
2026-05-06 09:09 66.21958 -85.37899 34947 ft 492 kts 44°
2026-05-06 09:09 66.27430 -85.27559 34821 ft 497 kts 43°
2026-05-06 09:10 66.33052 -85.17553 34744 ft 501 kts 41°
2026-05-06 09:10 66.38863 -85.07832 34751 ft 503 kts 39°
2026-05-06 09:11 66.44800 -84.98508 34856 ft 503 kts 37°
2026-05-06 09:11 66.50837 -84.89651 34921 ft 503 kts 35°
2026-05-06 09:12 66.57020 -84.81178 34783 ft 510 kts 33°
2026-05-06 09:12 66.60136 -84.77093 34670 ft 514 kts 33°
2026-05-06 09:12 66.63330 -84.73012 34596 ft 516 kts 32°
2026-05-06 09:13 66.69799 -84.65030 34579 ft 517 kts 31°
2026-05-06 09:13 66.76292 -84.57336 34786 ft 513 kts 30°
2026-05-06 09:13 66.79533 -84.53594 34928 ft 510 kts 30°
2026-05-06 09:14 66.82776 -84.49936 35029 ft 509 kts 28°
2026-05-06 09:14 66.89313 -84.42823 34896 ft 514 kts 27°
2026-05-06 09:14 66.92640 -84.39321 34765 ft 518 kts 27°
2026-05-06 09:15 66.95999 -84.35865 34650 ft 522 kts 27°
2026-05-06 09:15 67.02741 -84.29148 34602 ft 524 kts 26°
2026-05-06 09:16 67.09551 -84.22576 34785 ft 521 kts 25°
2026-05-06 09:16 67.12947 -84.19356 34899 ft 518 kts 24°
2026-05-06 09:16 67.16331 -84.16172 34980 ft 517 kts 24°
2026-05-06 09:17 67.23124 -84.09875 34920 ft 521 kts 24°
2026-05-06 09:17 67.29959 -84.03687 34776 ft 525 kts 23°
2026-05-06 09:18 67.36903 -83.97607 34783 ft 527 kts 22°
2026-05-06 09:18 67.43862 -83.91692 34924 ft 524 kts 21°
2026-05-06 09:19 67.50810 -83.85913 34986 ft 524 kts 21°
2026-05-06 09:19 67.57798 -83.80169 34925 ft 527 kts 21°
2026-05-06 09:20 67.64791 -83.74451 34867 ft 529 kts 20°
2026-05-06 09:20 67.71844 -83.68718 34911 ft 529 kts 20°
2026-05-06 09:21 67.78839 -83.63037 35002 ft 528 kts 20°
2026-05-06 09:21 67.85848 -83.57297 35136 ft 526 kts 20°
2026-05-06 09:22 67.92834 -83.51485 35146 ft 526 kts 21°
2026-05-06 09:22 67.99832 -83.45613 35091 ft 528 kts 21°
2026-05-06 09:23 68.06850 -83.39703 35090 ft 529 kts 20°
2026-05-06 09:23 68.13836 -83.33811 35092 ft 529 kts 20°
2026-05-06 09:24 68.20884 -83.27926 35073 ft 530 kts 20°
2026-05-06 09:24 68.27953 -83.22093 35148 ft 529 kts 20°
2026-05-06 09:25 68.33804 -83.17280 35247 ft 527 kts 20°
2026-05-06 09:25 68.41965 -83.10538 35252 ft 528 kts 19°
2026-05-06 09:26 68.49031 -83.04655 35074 ft 533 kts 19°
2026-05-06 09:26 68.54958 -82.99690 34954 ft 536 kts 19°
2026-05-06 09:27 68.62043 -82.93636 34946 ft 536 kts 20°
2026-05-06 09:27 68.69122 -82.87376 35079 ft 533 kts 20°
2026-05-06 09:28 68.76136 -82.80939 35211 ft 530 kts 20°
2026-05-06 09:28 68.83152 -82.74293 35077 ft 534 kts 21°
2026-05-06 09:29 68.90198 -82.67438 34950 ft 538 kts 21°
2026-05-06 09:29 68.97210 -82.60408 34926 ft 538 kts 22°
2026-05-06 09:30 69.04226 -82.53111 35017 ft 537 kts 22°
2026-05-06 09:30 69.11187 -82.45577 35123 ft 535 kts 23°
2026-05-06 09:31 69.18116 -82.37817 35100 ft 536 kts 24°
2026-05-06 09:31 69.24998 -82.29860 35055 ft 538 kts 24°
2026-05-06 09:32 69.31900 -82.21596 35063 ft 538 kts 25°
2026-05-06 09:32 69.38759 -82.13049 35107 ft 538 kts 25°
2026-05-06 09:33 69.45597 -82.04204 35025 ft 540 kts 26°
2026-05-06 09:33 69.52375 -81.95128 34984 ft 542 kts 27°
2026-05-06 09:34 69.59178 -81.85688 34985 ft 542 kts 28°
2026-05-06 09:34 69.65921 -81.75969 35037 ft 541 kts 28°
2026-05-06 09:35 69.72573 -81.66010 35086 ft 540 kts 28°
2026-05-06 09:35 69.79202 -81.55760 35156 ft 539 kts 30°
2026-05-06 09:36 69.85778 -81.45249 35186 ft 539 kts 30°
2026-05-06 09:36 69.92272 -81.34511 35182 ft 540 kts 31°
2026-05-06 09:37 69.98756 -81.23405 35203 ft 540 kts 32°
2026-05-06 09:37 70.05190 -81.11945 35133 ft 542 kts 32°
2026-05-06 09:38 70.11600 -81.00122 35028 ft 545 kts 33°
2026-05-06 09:38 70.17949 -80.88014 35008 ft 547 kts 34°
2026-05-06 09:39 70.24276 -80.75527 35072 ft 545 kts 35°
2026-05-06 09:39 70.30513 -80.62737 35196 ft 543 kts 36°
2026-05-06 09:40 70.36661 -80.49647 35160 ft 545 kts 37°
2026-05-06 09:40 70.45812 -80.29399 34998 ft 550 kts 38°
2026-05-06 09:41 70.51874 -80.15419 34982 ft 549 kts 39°
2026-05-06 09:41 70.57830 -80.01164 35143 ft 545 kts 40°
2026-05-06 09:42 70.60758 -79.93929 35259 ft 543 kts 40°
2026-05-06 09:42 70.63652 -79.86632 35302 ft 542 kts 41°
2026-05-06 09:42 70.69363 -79.71850 35198 ft 546 kts 42°
2026-05-06 09:43 70.75069 -79.56540 35033 ft 550 kts 43°
2026-05-06 09:43 70.80712 -79.40780 35004 ft 551 kts 44°
2026-05-06 09:44 70.86230 -79.24634 35098 ft 548 kts 46°
2026-05-06 09:44 70.91598 -79.08145 35252 ft 545 kts 47°
2026-05-06 09:45 70.96788 -78.91458 35328 ft 544 kts 48°
2026-05-06 09:45 71.01910 -78.74303 35288 ft 544 kts 49°
2026-05-06 09:46 71.06936 -78.56849 35287 ft 544 kts 50°
2026-05-06 09:46 71.11819 -78.39225 35314 ft 543 kts 51°
2026-05-06 09:47 71.16614 -78.21186 35352 ft 542 kts 53°
2026-05-06 09:47 71.21291 -78.02847 35368 ft 543 kts 53°
2026-05-06 09:48 71.25895 -77.84135 35212 ft 547 kts 54°
2026-05-06 09:48 71.30434 -77.64980 35115 ft 550 kts 56°
2026-05-06 09:49 71.34824 -77.45565 35115 ft 549 kts 57°
2026-05-06 09:49 71.39056 -77.25718 35197 ft 547 kts 59°
2026-05-06 09:50 71.43122 -77.05611 35334 ft 544 kts 60°
2026-05-06 09:50 71.47054 -76.85325 35444 ft 543 kts 61°
2026-05-06 09:51 71.50901 -76.64708 35203 ft 549 kts 62°
2026-05-06 09:51 71.52808 -76.54228 35061 ft 553 kts 62°
2026-05-06 09:51 71.54709 -76.43629 34957 ft 556 kts 63°
2026-05-06 09:52 71.58448 -76.22328 34864 ft 557 kts 63°
2026-05-06 09:52 71.62101 -76.00749 34957 ft 554 kts 64°
2026-05-06 09:53 71.63875 -75.89909 35074 ft 551 kts 65°
2026-05-06 09:53 71.65600 -75.79066 35207 ft 547 kts 65°
2026-05-06 09:53 71.67269 -75.68232 35346 ft 544 kts 66°
2026-05-06 09:53 71.68892 -75.57397 35441 ft 542 kts 67°
2026-05-06 09:54 71.72023 -75.35764 35479 ft 543 kts 68°
2026-05-06 09:54 71.73566 -75.24732 35279 ft 548 kts 68°
2026-05-06 09:54 71.75108 -75.13499 35053 ft 554 kts 69°
2026-05-06 09:55 71.76644 -75.02101 34857 ft 559 kts 69°
2026-05-06 09:55 71.78136 -74.90752 34739 ft 561 kts 70°
2026-05-06 09:55 71.81056 -74.67529 34639 ft 561 kts 71°
2026-05-06 09:56 71.83787 -74.44218 34841 ft 554 kts 72°
2026-05-06 09:56 71.85061 -74.32590 35005 ft 550 kts 73°
2026-05-06 09:56 71.86267 -74.20988 35168 ft 546 kts 75°
2026-05-06 09:57 71.87406 -74.09398 35360 ft 542 kts 75°
2026-05-06 09:57 71.88473 -73.97973 35468 ft 539 kts 76°
2026-05-06 09:57 71.90497 -73.74720 35406 ft 541 kts 78°
2026-05-06 09:58 71.92374 -73.51113 35184 ft 547 kts 79°
2026-05-06 09:58 71.93266 -73.39175 35064 ft 550 kts 79°
2026-05-06 09:58 71.94128 -73.27129 34922 ft 552 kts 80°
2026-05-06 09:59 71.95738 -73.03023 34882 ft 552 kts 81°
2026-05-06 09:59 71.97175 -72.78727 35014 ft 548 kts 83°
2026-05-06 10:00 71.97814 -72.66614 35116 ft 546 kts 84°
2026-05-06 10:00 71.98402 -72.54520 35233 ft 543 kts 84°
2026-05-06 10:00 71.98939 -72.42453 35344 ft 540 kts 85°
2026-05-06 10:00 71.99428 -72.30412 35387 ft 539 kts 86°
2026-05-06 10:01 72.00281 -72.06293 35315 ft 540 kts 87°
2026-05-06 10:01 72.00987 -71.82175 35234 ft 542 kts 88°
2026-05-06 10:02 72.01562 -71.57829 35245 ft 542 kts 89°
2026-05-06 10:02 72.01991 -71.33472 35326 ft 540 kts 90°
2026-05-06 10:03 72.02271 -71.09233 35418 ft 537 kts 92°
2026-05-06 10:03 72.02413 -70.85230 35477 ft 537 kts 92°
2026-05-06 10:04 72.02439 -70.73097 35326 ft 540 kts 93°
2026-05-06 10:04 72.02441 -70.60870 35185 ft 544 kts 93°
2026-05-06 10:04 72.02418 -70.48598 35074 ft 546 kts 94°
2026-05-06 10:04 72.02368 -70.36266 35008 ft 548 kts 94°
2026-05-06 10:05 72.02172 -70.11610 35014 ft 547 kts 95°
2026-05-06 10:05 72.01828 -69.87269 35172 ft 542 kts 97°
2026-05-06 10:06 72.01594 -69.75072 35284 ft 540 kts 97°
2026-05-06 10:06 72.01323 -69.62970 35358 ft 538 kts 98°
2026-05-06 10:06 72.00671 -69.38888 35431 ft 536 kts 99°
2026-05-06 10:07 71.99895 -69.14863 35376 ft 538 kts 100°
2026-05-06 10:07 71.99004 -68.90852 35327 ft 538 kts 101°
2026-05-06 10:08 71.98005 -68.66981 35355 ft 538 kts 102°
2026-05-06 10:08 71.96895 -68.43103 35424 ft 536 kts 102°
2026-05-06 10:09 71.95687 -68.19387 35502 ft 534 kts 103°
2026-05-06 10:09 71.94393 -67.95843 35585 ft 532 kts 104°
2026-05-06 10:10 71.93022 -67.72502 35548 ft 533 kts 104°
2026-05-06 10:10 71.91560 -67.49066 35505 ft 534 kts 105°
2026-05-06 10:11 71.90012 -67.25628 35494 ft 534 kts 106°
2026-05-06 10:11 71.88391 -67.02467 35524 ft 533 kts 106°
2026-05-06 10:12 71.86689 -66.79346 35609 ft 531 kts 107°
2026-05-06 10:12 71.84907 -66.56321 35632 ft 531 kts 107°
2026-05-06 10:13 71.83040 -66.33366 35580 ft 532 kts 108°
2026-05-06 10:13 71.81087 -66.10496 35558 ft 532 kts 109°
2026-05-06 10:14 71.79056 -65.87864 35539 ft 532 kts 109°
2026-05-06 10:14 71.76931 -65.65266 35583 ft 530 kts 110°
2026-05-06 10:15 71.74713 -65.42784 35645 ft 530 kts 111°
2026-05-06 10:15 71.73568 -65.31568 35534 ft 533 kts 111°
2026-05-06 10:15 71.72396 -65.20319 35398 ft 536 kts 111°
2026-05-06 10:16 71.70382 -65.01558 35242 ft 540 kts 112°
2026-05-06 10:16 71.67860 -64.79059 35223 ft 539 kts 113°
2026-05-06 10:17 71.65224 -64.56781 35333 ft 536 kts 114°
2026-05-06 10:17 71.62486 -64.34894 35520 ft 532 kts 115°
2026-05-06 10:18 71.59663 -64.13448 35591 ft 530 kts 116°
2026-05-06 10:18 71.56709 -63.91961 35495 ft 533 kts 117°
2026-05-06 10:19 71.53649 -63.70555 35379 ft 535 kts 117°
2026-05-06 10:19 71.50507 -63.49392 35365 ft 535 kts 118°
2026-05-06 10:20 71.47249 -63.28385 35445 ft 533 kts 120°
2026-05-06 10:20 71.43884 -63.07651 35532 ft 531 kts 121°
2026-05-06 10:21 71.40445 -62.87336 35559 ft 530 kts 121°
2026-05-06 10:21 71.36888 -62.67103 35516 ft 531 kts 122°
2026-05-06 10:22 71.33232 -62.47001 35458 ft 532 kts 123°
2026-05-06 10:22 71.29502 -62.27203 35462 ft 532 kts 124°
2026-05-06 10:23 71.25658 -62.07559 35514 ft 530 kts 125°
2026-05-06 10:23 71.21720 -61.88182 35547 ft 529 kts 125°
2026-05-06 10:24 71.17697 -61.69108 35582 ft 527 kts 126°
2026-05-06 10:24 71.13618 -61.50475 35686 ft 524 kts 127°
2026-05-06 10:25 71.09426 -61.32082 35743 ft 522 kts 128°
2026-05-06 10:25 71.05137 -61.14004 35680 ft 523 kts 129°
2026-05-06 10:26 71.00731 -60.96142 35597 ft 523 kts 130°
2026-05-06 10:26 70.96261 -60.78710 35594 ft 523 kts 131°
2026-05-06 10:27 70.91655 -60.61462 35629 ft 521 kts 132°
2026-05-06 10:27 70.86960 -60.44613 35678 ft 520 kts 134°
2026-05-06 10:28 70.82198 -60.28231 35689 ft 519 kts 135°
2026-05-06 10:28 70.77312 -60.12085 35635 ft 519 kts 135°
2026-05-06 10:29 70.72316 -59.96225 35563 ft 521 kts 137°
2026-05-06 10:29 70.67204 -59.80640 35506 ft 521 kts 138°
2026-05-06 10:30 70.62019 -59.65494 35492 ft 521 kts 139°
2026-05-06 10:30 70.56707 -59.50660 35494 ft 520 kts 140°
2026-05-06 10:31 70.51290 -59.36236 35504 ft 519 kts 141°
2026-05-06 10:31 70.45819 -59.22350 35516 ft 518 kts 143°
2026-05-06 10:32 70.40210 -59.08773 35517 ft 518 kts 144°
2026-05-06 10:32 70.34498 -58.95587 35515 ft 518 kts 145°
2026-05-06 10:33 70.28733 -58.82898 35515 ft 517 kts 147°
2026-05-06 10:33 70.22864 -58.70589 35542 ft 515 kts 148°
2026-05-06 10:34 70.16975 -58.58835 35643 ft 512 kts 149°
2026-05-06 10:34 70.10993 -58.47464 35689 ft 511 kts 150°
2026-05-06 10:35 70.04951 -58.36495 35660 ft 511 kts 151°
2026-05-06 10:35 69.98827 -58.25848 35610 ft 512 kts 152°
2026-05-06 10:36 69.92638 -58.15540 35587 ft 512 kts 153°
2026-05-06 10:36 69.86399 -58.05584 35591 ft 511 kts 154°
2026-05-06 10:37 69.80102 -57.95956 35605 ft 511 kts 155°
2026-05-06 10:37 69.73800 -57.86726 35615 ft 511 kts 156°
2026-05-06 10:38 69.67406 -57.77763 35597 ft 511 kts 156°
2026-05-06 10:38 69.60970 -57.69138 35657 ft 507 kts 157°
2026-05-06 10:39 69.54537 -57.60933 35754 ft 504 kts 158°
2026-05-06 10:39 69.48087 -57.53133 35830 ft 502 kts 159°
2026-05-06 10:40 69.41636 -57.45723 35782 ft 503 kts 160°
2026-05-06 10:40 69.35088 -57.38570 35685 ft 505 kts 161°
2026-05-06 10:41 69.28485 -57.31736 35644 ft 505 kts 162°
2026-05-06 10:41 69.21840 -57.25260 35668 ft 504 kts 163°
2026-05-06 10:42 69.15206 -57.19207 35726 ft 502 kts 164°
2026-05-06 10:42 69.08551 -57.13524 35828 ft 498 kts 165°
2026-05-06 10:43 69.01891 -57.08193 35917 ft 496 kts 166°
2026-05-06 10:44 68.91908 -57.00870 35811 ft 498 kts 167°
2026-05-06 10:44 68.85157 -56.96361 35735 ft 499 kts 168°
2026-05-06 10:45 68.78380 -56.92186 35730 ft 498 kts 169°
2026-05-06 10:45 68.71599 -56.88363 35779 ft 496 kts 170°
2026-05-06 10:46 68.64818 -56.84892 35819 ft 494 kts 170°
2026-05-06 10:46 68.58080 -56.81764 35870 ft 493 kts 171°
2026-05-06 10:47 68.51293 -56.78939 35818 ft 494 kts 172°
2026-05-06 10:47 68.44460 -56.76431 35767 ft 495 kts 173°
2026-05-06 10:48 68.37611 -56.74264 35740 ft 495 kts 174°
2026-05-06 10:48 68.30811 -56.72469 35769 ft 494 kts 175°
2026-05-06 10:49 68.23953 -56.71024 35793 ft 493 kts 176°
2026-05-06 10:49 68.17125 -56.69920 35866 ft 489 kts 177°
2026-05-06 10:50 68.10326 -56.69166 35864 ft 490 kts 178°
2026-05-06 10:50 68.03484 -56.68769 35711 ft 493 kts 179°
2026-05-06 10:51 67.96643 -56.68743 35585 ft 495 kts 180°
2026-05-06 10:51 67.89753 -56.69124 35558 ft 495 kts 181°
2026-05-06 10:52 67.82875 -56.69941 35617 ft 493 kts 183°
2026-05-06 10:52 67.76046 -56.71199 35709 ft 490 kts 184°
2026-05-06 10:53 67.69289 -56.72878 35753 ft 490 kts 186°
2026-05-06 10:53 67.62501 -56.74972 35721 ft 491 kts 187°
2026-05-06 10:54 67.55724 -56.77448 35692 ft 491 kts 188°
2026-05-06 10:54 67.49015 -56.80271 35684 ft 491 kts 189°
2026-05-06 10:55 67.42277 -56.83467 35684 ft 491 kts 190°
2026-05-06 10:55 67.35576 -56.87013 35709 ft 490 kts 191°
2026-05-06 10:56 67.28919 -56.90930 35742 ft 490 kts 193°
2026-05-06 10:56 67.22333 -56.95202 35718 ft 490 kts 194°
2026-05-06 10:57 67.15738 -56.99874 35691 ft 491 kts 195°
2026-05-06 10:57 67.09187 -57.04917 35696 ft 490 kts 196°
2026-05-06 10:58 67.02702 -57.10316 35741 ft 489 kts 197°
2026-05-06 10:58 66.96321 -57.16038 35785 ft 488 kts 199°
2026-05-06 10:59 66.89961 -57.22155 35762 ft 489 kts 200°
2026-05-06 10:59 66.83635 -57.28658 35692 ft 490 kts 201°
2026-05-06 11:00 66.77357 -57.35549 35671 ft 490 kts 202°
2026-05-06 11:00 66.71210 -57.42739 35699 ft 489 kts 204°
2026-05-06 11:01 66.65108 -57.50358 35750 ft 488 kts 205°
2026-05-06 11:01 66.59103 -57.58344 35761 ft 488 kts 206°
2026-05-06 11:02 66.53169 -57.66720 35724 ft 489 kts 207°
2026-05-06 11:02 66.47344 -57.75408 35693 ft 490 kts 208°
2026-05-06 11:03 66.41560 -57.84497 35672 ft 491 kts 210°
2026-05-06 11:03 66.35873 -57.93935 35670 ft 491 kts 212°
2026-05-06 11:04 66.30286 -58.03732 35671 ft 491 kts 213°
2026-05-06 11:04 66.25724 -58.12142 35679 ft 492 kts 214°
2026-05-06 11:05 66.19459 -58.24318 35657 ft 492 kts 216°
2026-05-06 11:05 66.15028 -58.33390 35645 ft 493 kts 217°
2026-05-06 11:06 66.09885 -58.44454 35636 ft 494 kts 218°
2026-05-06 11:06 66.04834 -58.55943 35624 ft 494 kts 220°
2026-05-06 11:07 65.99915 -58.67787 35659 ft 495 kts 221°
2026-05-06 11:07 65.95124 -58.79986 35634 ft 497 kts 223°
2026-05-06 11:08 65.90458 -58.92529 35577 ft 498 kts 224°
2026-05-06 11:08 65.85933 -59.05399 35551 ft 500 kts 226°
2026-05-06 11:09 65.81581 -59.18522 35563 ft 500 kts 228°
2026-05-06 11:09 65.77365 -59.32044 35587 ft 501 kts 229°
2026-05-06 11:10 65.73305 -59.45909 35492 ft 505 kts 230°
2026-05-06 11:10 65.69379 -59.60205 35318 ft 510 kts 232°
2026-05-06 11:11 65.65635 -59.74916 35134 ft 514 kts 234°
2026-05-06 11:11 65.62141 -59.89977 35026 ft 516 kts 237°
2026-05-06 11:12 65.58916 -60.05517 35010 ft 518 kts 240°
2026-05-06 11:12 65.56005 -60.21507 35021 ft 520 kts 243°
2026-05-06 11:13 65.53430 -60.37887 34985 ft 523 kts 246°
2026-05-06 11:13 65.51218 -60.54548 34945 ft 526 kts 249°
2026-05-06 11:14 65.49363 -60.71673 34919 ft 529 kts 252°
2026-05-06 11:14 65.47916 -60.89118 34901 ft 531 kts 256°
2026-05-06 11:15 65.46901 -61.06665 34899 ft 533 kts 260°
2026-05-06 11:15 65.46288 -61.24509 34932 ft 535 kts 263°
2026-05-06 11:16 65.46061 -61.42507 34868 ft 539 kts 266°
2026-05-06 11:16 65.46196 -61.60535 34775 ft 544 kts 269°
2026-05-06 11:17 65.46702 -61.78750 34715 ft 547 kts 272°
2026-05-06 11:17 65.47602 -61.96962 34713 ft 549 kts 276°
2026-05-06 11:18 65.48919 -62.15087 34756 ft 549 kts 279°
2026-05-06 11:18 65.50651 -62.32994 34805 ft 549 kts 283°
2026-05-06 11:19 65.52781 -62.50554 34850 ft 549 kts 286°
2026-05-06 11:19 65.55313 -62.67956 34869 ft 549 kts 289°
2026-05-06 11:20 65.58208 -62.85045 34861 ft 550 kts 292°
2026-05-06 11:20 65.61448 -63.01813 34869 ft 550 kts 296°
2026-05-06 11:21 65.64998 -63.18120 34860 ft 551 kts 299°
2026-05-06 11:21 65.68899 -63.34124 34854 ft 551 kts 302°
2026-05-06 11:22 65.73116 -63.49664 34847 ft 551 kts 305°
2026-05-06 11:22 65.77613 -63.64777 34818 ft 550 kts 308°
2026-05-06 11:23 65.82333 -63.79386 34899 ft 547 kts 310°
2026-05-06 11:23 65.87252 -63.93512 34977 ft 544 kts 313°
2026-05-06 11:24 65.92351 -64.07129 35051 ft 541 kts 315°
2026-05-06 11:24 65.97590 -64.20213 35037 ft 540 kts 317°
2026-05-06 11:25 66.03071 -64.32937 35009 ft 541 kts 320°
2026-05-06 11:25 66.08755 -64.45161 34889 ft 542 kts 322°
2026-05-06 11:26 66.14612 -64.56733 34851 ft 542 kts 324°
2026-05-06 11:26 66.20700 -64.67689 34841 ft 540 kts 328°
2026-05-06 11:27 66.27098 -64.77366 34755 ft 538 kts 335°
2026-05-06 11:27 66.33930 -64.85045 34683 ft 537 kts 342°
2026-05-06 11:28 66.41001 -64.90970 34681 ft 534 kts 348°
2026-05-06 11:28 66.48146 -64.95508 34822 ft 529 kts 351°
2026-05-06 11:29 66.55340 -64.99108 34974 ft 523 kts 353°
2026-05-06 11:29 66.58884 -65.00592 35098 ft 520 kts 354°
2026-05-06 11:29 66.62449 -65.01952 35251 ft 517 kts 355°
2026-05-06 11:30 66.69588 -65.04302 35326 ft 516 kts 357°
2026-05-06 11:30 66.76769 -65.06147 35171 ft 520 kts 358°
2026-05-06 11:31 66.83966 -65.07436 35044 ft 522 kts
2026-05-06 11:31 66.91234 -65.07981 35026 ft 521 kts
2026-05-06 11:32 66.98463 -65.07762 35156 ft 516 kts
2026-05-06 11:32 67.05616 -65.06908 35334 ft 511 kts
2026-05-06 11:33 67.12646 -65.05418 35426 ft 509 kts
2026-05-06 11:33 67.19691 -65.03240 35384 ft 510 kts 11°
2026-05-06 11:34 67.26748 -65.00499 35253 ft 512 kts 12°
2026-05-06 11:34 67.33727 -64.97328 35191 ft 513 kts 13°
2026-05-06 11:35 67.40737 -64.93751 35194 ft 512 kts 15°
2026-05-06 11:35 67.47686 -64.89712 35264 ft 510 kts 16°
2026-05-06 11:36 67.54574 -64.85346 35344 ft 508 kts 17°
2026-05-06 11:36 67.61364 -64.80715 35377 ft 507 kts 18°
2026-05-06 11:37 67.68159 -64.75655 35369 ft 507 kts 19°
2026-05-06 11:37 67.74926 -64.70273 35360 ft 508 kts 20°
2026-05-06 11:38 67.81664 -64.64624 35331 ft 508 kts 20°
2026-05-06 11:38 67.88378 -64.58739 35342 ft 508 kts 21°
2026-05-06 11:39 67.95007 -64.52588 35356 ft 507 kts 21°
2026-05-06 11:39 68.01614 -64.46032 35418 ft 505 kts 23°
2026-05-06 11:40 68.08143 -64.39060 35466 ft 504 kts 25°
2026-05-06 11:40 68.14544 -64.31694 35492 ft 503 kts 26°
2026-05-06 11:41 68.20926 -64.23787 35473 ft 504 kts 27°
2026-05-06 11:41 68.27223 -64.15386 35431 ft 504 kts 28°
2026-05-06 11:42 68.33384 -64.06548 35412 ft 504 kts 30°
2026-05-06 11:42 68.39477 -63.97115 35419 ft 503 kts 32°
2026-05-06 11:43 68.45438 -63.87133 35437 ft 502 kts 34°
2026-05-06 11:43 68.51259 -63.76583 35439 ft 502 kts 36°
2026-05-06 11:44 68.59684 -63.59745 35408 ft 502 kts 39°
2026-05-06 11:44 68.65141 -63.47726 35379 ft 503 kts 41°
2026-05-06 11:45 68.70441 -63.35079 35367 ft 503 kts 43°
2026-05-06 11:45 68.75497 -63.21963 35368 ft 502 kts 46°
2026-05-06 11:46 68.80384 -63.08150 35370 ft 502 kts 47°
2026-05-06 11:46 68.85052 -62.93773 35336 ft 503 kts 50°
2026-05-06 11:47 68.89509 -62.78823 35328 ft 503 kts 52°
2026-05-06 11:47 68.93738 -62.63327 35334 ft 503 kts 55°
2026-05-06 11:48 68.97693 -62.47443 35345 ft 502 kts 57°
2026-05-06 11:48 69.01419 -62.30974 35377 ft 501 kts 60°
2026-05-06 11:49 69.04884 -62.14038 35396 ft 501 kts 63°
2026-05-06 11:49 69.08070 -61.96734 35406 ft 500 kts 65°
2026-05-06 11:50 69.10970 -61.79152 35408 ft 500 kts 67°
2026-05-06 11:50 69.13617 -61.61140 35432 ft 499 kts 70°
2026-05-06 11:51 69.15982 -61.42853 35451 ft 498 kts 72°
2026-05-06 11:51 69.18066 -61.24300 35457 ft 498 kts 75°
2026-05-06 11:52 69.19873 -61.05472 35404 ft 500 kts 77°
2026-05-06 11:52 69.21421 -60.86361 35344 ft 501 kts 79°
2026-05-06 11:53 69.22697 -60.67157 35317 ft 502 kts 81°
2026-05-06 11:53 69.23703 -60.47711 35317 ft 501 kts 83°
2026-05-06 11:54 69.24422 -60.28177 35388 ft 499 kts 86°
2026-05-06 11:54 69.24852 -60.08651 35466 ft 497 kts 88°
2026-05-06 11:55 69.24994 -59.89288 35518 ft 496 kts 90°
2026-05-06 11:55 69.24863 -59.69788 35516 ft 497 kts 93°
2026-05-06 11:56 69.24464 -59.50295 35490 ft 498 kts 95°
2026-05-06 11:56 69.23814 -59.30901 35348 ft 502 kts 97°
2026-05-06 11:57 69.22921 -59.11306 35212 ft 505 kts 98°
2026-05-06 11:57 69.21992 -58.95021 35167 ft 506 kts 100°
2026-05-06 11:58 69.20393 -58.72423 35221 ft 504 kts 103°
2026-05-06 11:58 69.19019 -58.56378 35319 ft 502 kts 105°
2026-05-06 11:59 69.17148 -58.37618 35433 ft 500 kts 107°
2026-05-06 11:59 69.15015 -58.19045 35491 ft 499 kts 109°
2026-05-06 12:00 69.12644 -58.00672 35493 ft 500 kts 111°
2026-05-06 12:00 69.10076 -57.82673 35465 ft 501 kts 113°
2026-05-06 12:01 69.07275 -57.64771 35418 ft 502 kts 115°
2026-05-06 12:01 69.04256 -57.47125 35406 ft 503 kts 117°
2026-05-06 12:02 69.01027 -57.29818 35427 ft 502 kts 119°
2026-05-06 12:02 68.97588 -57.12877 35458 ft 501 kts 121°
2026-05-06 12:03 68.93947 -56.96337 35485 ft 501 kts 123°
2026-05-06 12:03 68.90133 -56.80291 35505 ft 500 kts 125°
2026-05-06 12:04 68.86102 -56.64521 35517 ft 500 kts 127°
2026-05-06 12:04 68.81889 -56.49160 35500 ft 501 kts 128°
2026-05-06 12:05 68.77524 -56.34285 35481 ft 501 kts 130°
2026-05-06 12:05 68.72961 -56.19733 35471 ft 502 kts 132°
2026-05-06 12:06 68.68227 -56.05613 35474 ft 501 kts 134°
2026-05-06 12:06 68.63336 -55.91965 35481 ft 501 kts 136°
2026-05-06 12:07 68.58312 -55.78862 35495 ft 501 kts 137°
2026-05-06 12:07 68.53113 -55.66179 35483 ft 502 kts 139°
2026-05-06 12:08 68.48809 -55.56292 35457 ft 503 kts 141°
2026-05-06 12:08 68.46950 -55.52030 35435 ft 503 kts 139°
2026-05-06 12:09 68.46492 -55.50943 35429 ft 503 kts 139°
2026-05-06 12:09 68.45859 -55.49419 35420 ft 503 kts 138°
2026-05-06 12:10 68.40827 -55.36278 35329 ft 505 kts 134°
2026-05-06 12:10 68.40071 -55.34161 35298 ft 506 kts 133°
2026-05-06 12:11 68.39574 -55.32736 35278 ft 507 kts 133°
2026-05-06 12:12 68.38874 -55.30695 35226 ft 508 kts 133°
2026-05-06 12:12 68.38268 -55.28908 35189 ft 508 kts 132°
2026-05-06 12:14 68.37345 -55.26153 35138 ft 509 kts 131°